Regional Weather Roundup
Issued by NWS

Home | Current Version | Previous Version | Graphics & Text | Print | Product List | Glossary On
Versions: 1 2 3 4 5 6 7 8 9 10 11 12 13 14 15 16 17 18 19 20 21 22 23 24 25 26 27 28 29 30 31 32 33 34 35 36 37 38 39 40 41 42 43 44 45 46 47 48 49 50
000
ASUS43 KMKX 282021
RWRWI

WISCONSIN REGIONAL WEATHER ROUNDUP
NATIONAL WEATHER SERVICE MILWAUKEE/SULLIVAN WI
300 PM CDT THU AUG 28 2014

NOTE: "FAIR" INDICATES FEW OR NO CLOUDS BELOW 12,000 FEET WITH NO
SIGNIFICANT WEATHER AND/OR OBSTRUCTIONS TO VISIBILITY.

WIZ001-002-006>008-014>016-023>028-282100-
NORTHWEST WISCONSIN

CITY           SKY/WX    TMP DP  RH WIND       PRES   REMARKS
SUPERIOR ARPT  PTSUNNY   69  60  71 NE9       30.03F
ASHLAND        PTSUNNY   73  58  59 N7        30.05F
HAYWARD        PTSUNNY   72  56  57 S9        30.06F
SIREN          PTSUNNY   73  58  59 SE8       30.03F
RICE LAKE      PTSUNNY   71  58  64 SE9       30.05F
LADYSMITH      PTSUNNY   72  58  61 SE7       30.08F
EAU CLAIRE     LGT RAIN  70  64  81 SE9       30.03F
MENOMONIE      DRIZZLE   71  64  79 SE8       30.04F
NEW RICHMOND   LGT RAIN  69  61  75 SE5       30.03F
OSCEOLA        CLOUDY    71  62  75 SE8       30.04F
$$

WIZ003>005-009-010-017-018-282100-
NORTH CENTRAL WISCONSIN

CITY           SKY/WX    TMP DP  RH WIND       PRES   REMARKS
WOODRUFF       MOSUNNY   72  54  52 S6        30.09F
RHINELANDER    PTSUNNY   69  54  58 S8        30.11F
EAGLE RIVER    PTSUNNY   71  49  45 E5        30.09F
LAND O LAKES   MOSUNNY   72  47  41 S3        30.10F
PHILLIPS       CLOUDY    69  57  65 S7        30.08F
TOMAHAWK       PTSUNNY   69  56  64 S3        30.10F
MEDFORD        CLOUDY    66  59  78 SE3       30.09F
MERRILL        PTSUNNY   69  59  69 S7        30.10F
$$

WIZ029-030-035-036-043>047-282100-
CENTRAL WISCONSIN

CITY           SKY/WX    TMP DP  RH WIND       PRES   REMARKS
WAUSAU         PTSUNNY   70  59  68 VRB3      30.08F
MOSINEE        CLOUDY    70  63  78 E5        30.10F
MARSHFIELD     CLOUDY    70  62  76 SE5       30.08F
STEVENS POINT  CLOUDY    68  60  74 SE6       30.10S
WAUPACA        CLOUDY    73  61  65 E8        30.10S
WAUTOMA        HVY RAIN  74  61  63 SE6       30.09F
WISC RAPIDS    CLOUDY    74  60  61 VRB7      30.09F
CAMP DOUGLAS   CLOUDY    72  64  78 SE8       30.06F
$$

WIZ011>013-019>022-031-037>040-048>050-282100-
NORTHEAST WISCONSIN

CITY           SKY/WX    TMP DP  RH WIND       PRES   REMARKS
ANTIGO         PTSUNNY   67  57  70 SE6       30.10F
STURGEON BAY   PTSUNNY   66  55  68 SE8       30.13F
GREEN BAY      CLOUDY    71  60  68 SE7       30.11F
MANITOWOC      CLOUDY    67  55  65 SE14      30.14F
APPLETON       CLOUDY    70  57  64 SE9       30.12F
CLINTONVILLE   CLOUDY    72  59  64 SE7       30.10F
OSHKOSH        CLOUDY    71  59  65 SE9       30.10F
$$

WIZ032>034-041-042-053>061-282100-
SOUTHWEST WISCONSIN

CITY           SKY/WX    TMP DP  RH WIND       PRES   REMARKS
LA CROSSE      LGT RAIN  70  65  84 SE6       30.02F
SPARTA         LGT RAIN  70  62  76 SE5       30.06F
VIROQUA        CLOUDY    68  67  98 E9        30.05F
BOSCOBEL       LGT RAIN  73  65  75 VRB3      30.03F
PRAIRIE DU CHI CLOUDY    71  62  75 E6        30.01F
PLATTEVILLE    FAIR      71  65  82 E9        30.05F
$$

WIZ056-057-062-063-064-067-068-282100-
SOUTH CENTRAL WISCONSIN

CITY           SKY/WX    TMP DP  RH WIND       PRES   REMARKS
BARABOO/DELLS  CLOUDY    73  58  59 SE7       30.07F
LONE ROCK      LGT RAIN  75  63  66 SE9       30.04F
WATERTOWN      CLOUDY    73  59  62 E7        30.09F
MADISON        CLOUDY    74  60  61 SE12      30.07F
MIDDLETON      CLOUDY    73  60  61 SE8       30.07F
MONROE         CLOUDY    72  61  68 E6        30.07F
JANESVILLE     MOSUNNY   77  55  47 SE10      30.08F
$$

WIZ051-052-058>065-066-070>072-282100-
SOUTHEAST WISCONSIN

CITY           SKY/WX    TMP DP  RH WIND       PRES   REMARKS
MILWAUKEE      PTSUNNY   68  54  60 E10       30.12F
WAUKESHA       MOSUNNY   70  54  56 E10       30.13F
MILWAUKEE/TIMM SUNNY     72  50  46 E9G17     30.13F
RACINE         MOSUNNY   70  57  63 E9        30.13F
BURLINGTON     PTSUNNY   70  54  55 E8        30.11S
KENOSHA        PTSUNNY   72  55  55 E12       30.11F
FOND DU LAC    CLOUDY    71  57  61 MISG      30.11F
SHEBOYGAN      CLOUDY    67  52  58 SE10      30.14F
WEST BEND      PTSUNNY   68  52  56 E9        30.12F
JUNEAU         CLOUDY    71  58  63 E9        30.11F
$$

LSZ147-162-282100-
LAKE SUPERIOR

STATION/POSITION TIME  TEMP    WIND        PRES    WAVE
                       AIR SEA DIR/SP/G            HT/PER
                 (UTC) (F)     (DEG/KT/KT) (MB)    (FT/S)
W MID LAKE BUOY  1950   60 60   80/  2/  2 1018.7F   1
DEVILS ISLAND    2000   62      60/  8/  9 1018.1F
PORT WING        1940   65      30/ 14/ 16 1017.6F
SAXON HARBOR     1900   65      50/ 10/ 11 1018.6F
$$

LMZ867-665-643>646-282100-
LAKE MICHIGAN

STATION/POSITION TIME  TEMP    WIND        PRES    WAVE
                       AIR SEA DIR/SP/G            HT/PER
                 (UTC) (F)     (DEG/KT/KT) (MB)    (FT/S)
N MID LAKE BUOY  1950   63 66  160/  6/  8 1021.3F   0
NORTHPORT PIER   1900   64     140/ 10/ 16 1021.0F
SISTER BAY       1926   68     150/ 12/ 15   N/A
KEWAUNEE LAKESHO 2000   65     160/ 12/ 13 1019.4F
SHEBOYGAN LAKESH 2000   65 69  160/ 10/ 11 1020.6F
ATWATER BUOY     2000   67     110/  8/ 10 1020.9F
MILWAUKEE LAKESH 2000   67      90/  9/ 11   N/A
S MID LAKE BUOY  1950   67 69   50/ 10/ 10 1019.7F
KENOSHA   LAKESH 2000   68      80/  9/ 11 1019.0F
$$

TC  - TEMPERATURE IN CELSIUS
VSB - VISIBILITY IN STATUTE MILES
WCI - WIND CHILL INDEX
HX  - HEAT INDEX




USA.gov is the U.S. government's official web portal to all federal, state and local government web resources and services.